This is the latest recevied weather packets stored in our database for station/object W0SS-13. If no packets are shown the sender has not sent any weather packets the latest 10 day(s).
| Time | Temp. | Humidity | Pressure | Rain* | Wind** | Luminosity | Snow |
|---|---|---|---|---|---|---|---|
| 1778031813 | 10° C | 86% | 1013.1 hPa | 0 mm | - | 0 W/m² | - |
| 1778031510 | 10° C | 86% | 1013.1 hPa | 0 mm | - | 0 W/m² | - |
| 1778031207 | 10° C | 86% | 1013 hPa | 0 mm | - | 0 W/m² | - |
| 1778030903 | 10° C | 86% | 1013.1 hPa | 0 mm | - | 0 W/m² | - |
| 1778030601 | 10° C | 85% | 1013.2 hPa | 0 mm | - | 1 W/m² | - |
| 1778030298 | 10.56° C | 84% | 1012.9 hPa | 0 mm | - | 2 W/m² | - |
| 1778029994 | 10.56° C | 83% | 1013 hPa | 0 mm | - | 4 W/m² | - |
| 1778029692 | 10.56° C | 82% | 1013 hPa | 0 mm | - | 8 W/m² | - |
| 1778029390 | 10.56° C | 81% | 1012.9 hPa | 0 mm | - | 10 W/m² | - |
| 1778029086 | 10.56° C | 82% | 1012.9 hPa | 0 mm | - | 12 W/m² | - |
| 1778028783 | 11.11° C | 82% | 1012.9 hPa | 0 mm | - | 14 W/m² | - |
| 1778028479 | 10.56° C | 80% | 1012.7 hPa | 0 mm | - | 18 W/m² | - |
| 1778028177 | 11.11° C | 79% | 1013.1 hPa | 0 mm | - | 21 W/m² | - |
| 1778027873 | 11.11° C | 79% | 1012.8 hPa | 0 mm | - | 24 W/m² | - |
| 1778027569 | 11.11° C | 78% | 1013 hPa | 0 mm | - | 33 W/m² | - |
| 1778027266 | 11.11° C | 79% | 1012.9 hPa | 0 mm | - | 29 W/m² | - |
| 1778026962 | 11.11° C | 79% | 1013 hPa | 0 mm | - | 29 W/m² | - |
| 1778026658 | 11.11° C | 79% | 1013 hPa | 0 mm | - | 34 W/m² | - |
| 1778026356 | 11.11° C | 78% | 1012.9 hPa | 0 mm | - | 30 W/m² | - |
| 1778026052 | 11.11° C | 79% | 1012.6 hPa | 0 mm | - | 39 W/m² | - |
| 1778025750 | 11.11° C | 78% | 1012.5 hPa | 0 mm | - | 46 W/m² | - |
| 1778025447 | 11.11° C | 78% | 1012.6 hPa | 0 mm | - | 45 W/m² | - |
| 1778025145 | 11.11° C | 77% | 1012.7 hPa | 0 mm | - | 49 W/m² | - |
| 1778024841 | 11.67° C | 77% | 1012.7 hPa | 0 mm | - | 72 W/m² | - |
| 1778024539 | 11.67° C | 76% | 1012.8 hPa | 0 mm | - | 114 W/m² | - |
* Rain latest hour (hover to see other rain measurements)
** Current wind speed in m/s (hover to see current wind gust speed)